Torna al catalogo

CZ-4B DEB

AttivoSSO
NORAD 46484·DEBRIS·🇨🇳 China

Lanciato Sep 27, 2020 da Taiyuan Satellite Launch Center

Loading…

Prossimi Passaggi (prossime 24 ore)

TLE

AggiornatoSource: Space-Track

Epoca: Sep 14, 2026, 08:42 UTC

1 46484U 20067G   26257.36291988  .00004201  00000-0  34573-3 0  9991
2 46484  97.6130 309.2659 0036887  93.9964 266.5477 14.99105802323318

Traccia CZ-4B DEB in tempo reale con AllMySat

Download on the App Store